PAL737 VTBS-RPLL

Flight info

Callsign PAL737
Flight time 2h 54m
Altitude 35000
Route DOSBU1E DOSBU L880 VEMKO G474 ANINA/K0859F350 G474 PCA L628 MESOX/N0462F350 L628 ARESI/N0463F330 L628 DODUS W3 LUBAN LUBAN3R
Aircraft A21N/M-SDE3FGHIRWY/LB1

Departure

Time 2026-05-05 12:27
Airport Suvarnabhumi Airport (VTBS)

Arrival

Time 2026-05-05 15:22
Airport Ninoy Aquino International Airport (RPLL)
Time Latitude Longitude Altitude Speed Heading
2026-05-05 12:08 13.69121 100.74590 15 ft 0 kts 105°
2026-05-05 12:16 13.69124 100.74580 15 ft 2 kts 105°
2026-05-05 12:16 13.69128 100.74565 15 ft 2 kts 105°
2026-05-05 12:16 13.69132 100.74551 15 ft 2 kts 105°
2026-05-05 12:16 13.69135 100.74536 15 ft 2 kts 105°
2026-05-05 12:17 13.69139 100.74520 15 ft 2 kts 88°
2026-05-05 12:17 13.69136 100.74506 15 ft 2 kts 69°
2026-05-05 12:17 13.69129 100.74492 15 ft 2 kts 49°
2026-05-05 12:17 13.69118 100.74482 15 ft 2 kts 29°
2026-05-05 12:18 13.69104 100.74477 15 ft 2 kts 11°
2026-05-05 12:18 13.69090 100.74474 15 ft 2 kts 17°
2026-05-05 12:18 13.69075 100.74469 15 ft 2 kts 15°
2026-05-05 12:18 13.69063 100.74466 15 ft 1 kts 14°
2026-05-05 12:19 13.69055 100.74464 15 ft 1 kts 18°
2026-05-05 12:19 13.69052 100.74463 14 ft 0 kts 15°
2026-05-05 12:20 13.69054 100.74463 14 ft 0 kts 15°
2026-05-05 12:21 13.69063 100.74466 15 ft 2 kts 15°
2026-05-05 12:21 13.69079 100.74470 15 ft 3 kts 14°
2026-05-05 12:21 13.69110 100.74471 14 ft 5 kts 346°
2026-05-05 12:21 13.69145 100.74439 15 ft 8 kts 290°
2026-05-05 12:22 13.69158 100.74373 14 ft 10 kts 282°
2026-05-05 12:22 13.69176 100.74294 14 ft 11 kts 284°
2026-05-05 12:22 13.69211 100.74219 14 ft 11 kts 329°
2026-05-05 12:22 13.69293 100.74225 15 ft 12 kts 15°
2026-05-05 12:23 13.69377 100.74248 15 ft 12 kts 14°
2026-05-05 12:23 13.69464 100.74271 14 ft 12 kts 14°
2026-05-05 12:23 13.69552 100.74294 15 ft 13 kts 14°
2026-05-05 12:23 13.69641 100.74317 14 ft 13 kts 14°
2026-05-05 12:24 13.69734 100.74341 15 ft 13 kts 14°
2026-05-05 12:24 13.69825 100.74365 14 ft 13 kts 14°
2026-05-05 12:24 13.69918 100.74389 14 ft 13 kts 14°
2026-05-05 12:24 13.70017 100.74415 13 ft 14 kts 14°
2026-05-05 12:25 13.70118 100.74442 13 ft 14 kts 14°
2026-05-05 12:25 13.70221 100.74470 11 ft 16 kts 14°
2026-05-05 12:25 13.70301 100.74483 11 ft 9 kts 345°
2026-05-05 12:25 13.70339 100.74428 11 ft 10 kts 283°
2026-05-05 12:26 13.70344 100.74355 11 ft 10 kts 246°
2026-05-05 12:26 13.70295 100.74300 12 ft 10 kts 206°
2026-05-05 12:26 13.70210 100.74275 13 ft 26 kts 194°
2026-05-05 12:26 13.69796 100.74166 15 ft 95 kts 195°
2026-05-05 12:27 13.68937 100.73940 15 ft 154 kts 194°
2026-05-05 12:27 13.67753 100.73631 157 ft 187 kts 194°
2026-05-05 12:27 13.66489 100.73299 758 ft 190 kts 193°
2026-05-05 12:27 13.65216 100.72959 1489 ft 190 kts 192°
2026-05-05 12:28 13.63973 100.72629 2077 ft 183 kts 192°
2026-05-05 12:28 13.62715 100.72298 2363 ft 191 kts 191°
2026-05-05 12:28 13.61398 100.71953 2629 ft 200 kts 191°
2026-05-05 12:28 13.60004 100.71587 2859 ft 212 kts 192°
2026-05-05 12:29 13.59440 100.71437 2949 ft 217 kts 192°
2026-05-05 12:29 13.59381 100.71421 2959 ft 218 kts 192°
2026-05-05 12:29 13.58227 100.71116 3138 ft 227 kts 192°
2026-05-05 12:30 13.56623 100.70692 3306 ft 245 kts 192°
2026-05-05 12:30 13.54973 100.70110 3553 ft 262 kts 210°
2026-05-05 12:30 13.53656 100.68755 3835 ft 278 kts 241°
2026-05-05 12:30 13.53139 100.66847 4308 ft 283 kts 271°
2026-05-05 12:31 13.53483 100.64873 4898 ft 282 kts 287°
2026-05-05 12:31 13.54028 100.62923 5490 ft 284 kts 287°
2026-05-05 12:31 13.54566 100.60936 6094 ft 286 kts 286°
2026-05-05 12:31 13.55282 100.59039 6649 ft 286 kts 306°
2026-05-05 12:32 13.56726 100.57687 7177 ft 283 kts 334°
2026-05-05 12:32 13.58605 100.57154 7694 ft 282 kts
2026-05-05 12:32 13.60574 100.57224 8225 ft 284 kts
2026-05-05 12:32 13.62594 100.57323 8737 ft 287 kts
2026-05-05 12:33 13.64645 100.57415 9246 ft 289 kts
2026-05-05 12:33 13.66602 100.57939 9719 ft 290 kts 27°
2026-05-05 12:33 13.68294 100.59099 10214 ft 290 kts 40°
2026-05-05 12:33 13.69867 100.60462 10476 ft 302 kts 41°
2026-05-05 12:34 13.71504 100.61902 10699 ft 314 kts 41°
2026-05-05 12:34 13.73233 100.63407 10917 ft 326 kts 42°
2026-05-05 12:34 13.74762 100.65196 11100 ft 336 kts 62°
2026-05-05 12:34 13.75487 100.67473 11454 ft 340 kts 84°
2026-05-05 12:35 13.75522 100.69930 11953 ft 341 kts 91°
2026-05-05 12:35 13.75480 100.72390 12406 ft 343 kts 91°
2026-05-05 12:35 13.75450 100.74867 12839 ft 346 kts 91°
2026-05-05 12:35 13.75431 100.77332 13278 ft 348 kts 90°
2026-05-05 12:36 13.75418 100.79830 13706 ft 351 kts 90°
2026-05-05 12:36 13.75408 100.82361 14107 ft 353 kts 90°
2026-05-05 12:36 13.75398 100.84907 14502 ft 356 kts 90°
2026-05-05 12:36 13.75388 100.87438 14886 ft 359 kts 90°
2026-05-05 12:37 13.75379 100.90007 15289 ft 361 kts 90°
2026-05-05 12:37 13.75369 100.92615 15676 ft 363 kts 90°
2026-05-05 12:37 13.75359 100.95227 15944 ft 365 kts 90°
2026-05-05 12:37 13.75349 100.97810 15938 ft 366 kts 90°
2026-05-05 12:38 13.75338 101.00474 15913 ft 369 kts 90°
2026-05-05 12:38 13.75326 101.03102 16292 ft 370 kts 89°
2026-05-05 12:38 13.75314 101.05730 16736 ft 369 kts 89°
2026-05-05 12:38 13.75301 101.08401 17109 ft 371 kts 89°
2026-05-05 12:39 13.75290 101.11021 17451 ft 372 kts 89°
2026-05-05 12:39 13.75278 101.13707 17776 ft 375 kts 89°
2026-05-05 12:39 13.75266 101.16396 18085 ft 377 kts 89°
2026-05-05 12:39 13.75252 101.19137 18387 ft 380 kts 89°
2026-05-05 12:40 13.75324 101.21847 18673 ft 382 kts 85°
2026-05-05 12:40 13.75602 101.24563 18964 ft 384 kts 81°
2026-05-05 12:40 13.76089 101.27286 19251 ft 386 kts 77°
2026-05-05 12:40 13.76652 101.29987 19524 ft 388 kts 77°
2026-05-05 12:41 13.77222 101.32680 19791 ft 390 kts 77°
2026-05-05 12:41 13.77800 101.35410 20066 ft 392 kts 77°
2026-05-05 12:41 13.78380 101.38168 20342 ft 394 kts 77°
2026-05-05 12:41 13.78959 101.40924 20603 ft 396 kts 77°
2026-05-05 12:42 13.79538 101.43690 20883 ft 397 kts 77°
2026-05-05 12:42 13.80120 101.46482 21149 ft 399 kts 77°
2026-05-05 12:42 13.80704 101.49283 21397 ft 401 kts 77°
2026-05-05 12:42 13.81294 101.52115 21637 ft 403 kts 77°
2026-05-05 12:43 13.81881 101.54937 21870 ft 405 kts 77°
2026-05-05 12:43 13.82469 101.57759 22098 ft 407 kts 77°
2026-05-05 12:43 13.83064 101.60622 22332 ft 409 kts 77°
2026-05-05 12:43 13.83657 101.63475 22575 ft 410 kts 77°
2026-05-05 12:44 13.84254 101.66351 22821 ft 411 kts 77°
2026-05-05 12:44 13.84851 101.69233 23061 ft 413 kts 77°
2026-05-05 12:44 13.85452 101.72128 23294 ft 414 kts 77°
2026-05-05 12:44 13.86054 101.75038 23521 ft 416 kts 77°
2026-05-05 12:45 13.86658 101.77951 23743 ft 417 kts 77°
2026-05-05 12:45 13.87221 101.80871 23965 ft 419 kts 79°
2026-05-05 12:45 13.87587 101.83839 24189 ft 421 kts 84°
2026-05-05 12:45 13.87730 101.86872 24412 ft 423 kts 88°
2026-05-05 12:46 13.87706 101.89899 24635 ft 424 kts 90°
2026-05-05 12:46 13.87652 101.92925 24850 ft 426 kts 90°
2026-05-05 12:46 13.87594 101.96008 25068 ft 427 kts 90°
2026-05-05 12:46 13.87539 101.99042 25277 ft 428 kts 90°
2026-05-05 12:47 13.87486 102.02131 25484 ft 429 kts 90°
2026-05-05 12:47 13.87435 102.05208 25683 ft 431 kts 90°
2026-05-05 12:47 13.87383 102.08311 25879 ft 432 kts 90°
2026-05-05 12:47 13.87333 102.11380 26066 ft 433 kts 90°
2026-05-05 12:48 13.87282 102.14499 26249 ft 435 kts 90°
2026-05-05 12:48 13.87231 102.17619 26437 ft 436 kts 90°
2026-05-05 12:48 13.87180 102.20738 26630 ft 437 kts 90°
2026-05-05 12:48 13.87127 102.23865 26810 ft 438 kts 90°
2026-05-05 12:49 13.87074 102.27025 26993 ft 439 kts 90°
2026-05-05 12:49 13.87021 102.30165 27173 ft 440 kts 90°
2026-05-05 12:49 13.86966 102.33305 27347 ft 441 kts 90°
2026-05-05 12:49 13.86910 102.36480 27520 ft 443 kts 90°
2026-05-05 12:50 13.86853 102.39681 27695 ft 444 kts 90°
2026-05-05 12:50 13.86796 102.42883 27861 ft 445 kts 90°
2026-05-05 12:50 13.86741 102.46085 28025 ft 446 kts 90°
2026-05-05 12:50 13.86684 102.49293 28187 ft 448 kts 90°
2026-05-05 12:51 13.86627 102.52460 28345 ft 449 kts 90°
2026-05-05 12:51 13.86569 102.55692 28499 ft 450 kts 90°
2026-05-05 12:51 13.86510 102.58909 28659 ft 451 kts 90°
2026-05-05 12:51 13.86450 102.62164 28819 ft 453 kts 90°
2026-05-05 12:52 13.86391 102.65385 28974 ft 454 kts 90°
2026-05-05 12:52 13.86331 102.68639 29125 ft 455 kts 90°
2026-05-05 12:52 13.86270 102.71915 29274 ft 457 kts 90°
2026-05-05 12:52 13.86207 102.75207 29429 ft 458 kts 90°
2026-05-05 12:53 13.86145 102.78467 29578 ft 459 kts 90°
2026-05-05 12:53 13.86081 102.81754 29731 ft 460 kts 90°
2026-05-05 12:53 13.86017 102.85036 29872 ft 462 kts 91°
2026-05-05 12:53 13.85951 102.88374 30007 ft 463 kts 91°
2026-05-05 12:54 13.85821 102.94998 30380 ft 463 kts 91°
2026-05-05 12:54 13.85755 102.98326 30593 ft 463 kts 91°
2026-05-05 12:54 13.85689 103.01645 30791 ft 463 kts 91°
2026-05-05 12:55 13.85622 103.04956 30988 ft 463 kts 91°
2026-05-05 12:55 13.85555 103.08266 31183 ft 463 kts 91°
2026-05-05 12:55 13.85487 103.11570 31397 ft 463 kts 91°
2026-05-05 12:55 13.85420 103.14863 31600 ft 463 kts 91°
2026-05-05 12:56 13.85351 103.18208 31809 ft 462 kts 91°
2026-05-05 12:56 13.85283 103.21470 32014 ft 462 kts 91°
2026-05-05 12:56 13.85213 103.24806 32237 ft 462 kts 91°
2026-05-05 12:56 13.85144 103.28101 32448 ft 461 kts 91°
2026-05-05 12:57 13.85074 103.31372 32681 ft 461 kts 91°
2026-05-05 12:57 13.85004 103.34697 32923 ft 460 kts 91°
2026-05-05 12:57 13.84935 103.37982 33137 ft 460 kts 91°
2026-05-05 12:57 13.84864 103.41267 33324 ft 461 kts 91°
2026-05-05 12:58 13.84794 103.44546 33497 ft 462 kts 91°
2026-05-05 12:58 13.84722 103.47847 33675 ft 463 kts 91°
2026-05-05 12:58 13.84650 103.51132 33873 ft 463 kts 91°
2026-05-05 12:58 13.84577 103.54454 34060 ft 464 kts 91°
2026-05-05 12:59 13.84502 103.57770 34245 ft 464 kts 91°
2026-05-05 12:59 13.84428 103.61084 34429 ft 465 kts 91°
2026-05-05 12:59 13.84352 103.64407 34602 ft 465 kts 91°
2026-05-05 13:00 13.84201 103.71018 34806 ft 467 kts 91°
2026-05-05 13:00 13.84123 103.74387 34810 ft 467 kts 91°
2026-05-05 13:01 13.83813 103.87700 34815 ft 466 kts 91°
2026-05-05 13:01 13.83657 103.94353 34816 ft 467 kts 91°
2026-05-05 13:02 13.83498 104.01024 34820 ft 467 kts 91°
2026-05-05 13:02 13.83334 104.07678 34814 ft 466 kts 91°
2026-05-05 13:03 13.83170 104.14302 34812 ft 467 kts 91°
2026-05-05 13:03 13.83003 104.20983 34812 ft 467 kts 92°
2026-05-05 13:04 13.82836 104.27633 34811 ft 467 kts 92°
2026-05-05 13:04 13.82667 104.34291 34811 ft 466 kts 91°
2026-05-05 13:05 13.82499 104.40907 34811 ft 466 kts 91°
2026-05-05 13:05 13.82327 104.47594 34810 ft 466 kts 92°
2026-05-05 13:06 13.82154 104.54203 34811 ft 466 kts 92°
2026-05-05 13:06 13.81978 104.60844 34812 ft 465 kts 92°
2026-05-05 13:07 13.81801 104.67492 34810 ft 466 kts 92°
2026-05-05 13:07 13.81621 104.74158 34809 ft 466 kts 92°
2026-05-05 13:08 13.81441 104.80769 34810 ft 465 kts 92°
2026-05-05 13:08 13.81260 104.87412 34818 ft 465 kts 92°
2026-05-05 13:09 13.81076 104.94066 34824 ft 465 kts 92°
2026-05-05 13:09 13.80889 105.00694 34826 ft 465 kts 92°
2026-05-05 13:10 13.80702 105.07309 34827 ft 465 kts 92°
2026-05-05 13:10 13.80513 105.13935 34829 ft 465 kts 92°
2026-05-05 13:11 13.80321 105.20579 34829 ft 465 kts 92°
2026-05-05 13:11 13.80130 105.27200 34831 ft 465 kts 92°
2026-05-05 13:12 13.79937 105.33826 34832 ft 465 kts 92°
2026-05-05 13:12 13.79740 105.40488 34835 ft 465 kts 92°
2026-05-05 13:13 13.79540 105.47122 34837 ft 465 kts 92°
2026-05-05 13:13 13.79338 105.53728 34839 ft 465 kts 92°
2026-05-05 13:14 13.79135 105.60359 34838 ft 465 kts 92°
2026-05-05 13:14 13.78931 105.66992 34837 ft 465 kts 92°
2026-05-05 13:15 13.78725 105.73657 34835 ft 465 kts 92°
2026-05-05 13:15 13.78518 105.80265 34833 ft 465 kts 92°
2026-05-05 13:16 13.78310 105.86907 34832 ft 465 kts 92°
2026-05-05 13:16 13.78099 105.93521 34829 ft 465 kts 92°
2026-05-05 13:17 13.77887 106.00183 34824 ft 465 kts 92°
2026-05-05 13:17 13.77704 106.06825 34826 ft 465 kts 90°
2026-05-05 13:18 13.78051 106.13421 34828 ft 465 kts 84°
2026-05-05 13:18 13.79021 106.19987 34837 ft 466 kts 80°
2026-05-05 13:19 13.80098 106.26562 34844 ft 466 kts 80°
2026-05-05 13:19 13.81161 106.33118 34844 ft 465 kts 80°
2026-05-05 13:20 13.82215 106.39671 34846 ft 465 kts 81°
2026-05-05 13:20 13.83258 106.46179 34848 ft 465 kts 81°
2026-05-05 13:21 13.84305 106.52734 34848 ft 465 kts 80°
2026-05-05 13:21 13.85351 106.59293 34849 ft 465 kts 80°
2026-05-05 13:22 13.86398 106.65869 34849 ft 465 kts 81°
2026-05-05 13:22 13.87435 106.72391 34850 ft 466 kts 81°
2026-05-05 13:23 13.88481 106.78982 34847 ft 465 kts 81°
2026-05-05 13:23 13.89516 106.85520 34850 ft 466 kts 81°
2026-05-05 13:24 13.90554 106.92082 34860 ft 465 kts 81°
2026-05-05 13:24 13.91586 106.98621 34864 ft 465 kts 81°
2026-05-05 13:25 13.92621 107.05187 34870 ft 465 kts 81°
2026-05-05 13:25 13.93647 107.11715 34867 ft 465 kts 81°
2026-05-05 13:26 13.94679 107.18291 34869 ft 465 kts 80°
2026-05-05 13:26 13.95706 107.24844 34872 ft 465 kts 81°
2026-05-05 13:27 13.96730 107.31397 34873 ft 465 kts 81°
2026-05-05 13:27 13.97755 107.37965 34889 ft 465 kts 81°
2026-05-05 13:28 13.98451 107.44553 34908 ft 466 kts 87°
2026-05-05 13:28 13.98712 107.51196 34920 ft 465 kts 88°
2026-05-05 13:29 13.98950 107.57851 34930 ft 464 kts 88°
2026-05-05 13:29 13.99196 107.64455 34941 ft 465 kts 88°
2026-05-05 13:30 13.99447 107.71121 34945 ft 465 kts 88°
2026-05-05 13:30 13.99695 107.77747 34955 ft 465 kts 88°
2026-05-05 13:31 13.99941 107.84381 34972 ft 466 kts 88°
2026-05-05 13:31 14.00186 107.91049 34993 ft 466 kts 88°
2026-05-05 13:32 14.00429 107.97701 35015 ft 466 kts 88°
2026-05-05 13:32 14.00512 108.04352 35030 ft 466 kts 92°
2026-05-05 13:33 14.00208 108.11006 35025 ft 466 kts 93°
2026-05-05 13:33 13.99888 108.17606 35019 ft 465 kts 93°
2026-05-05 13:34 13.99576 108.24268 35021 ft 465 kts 93°
2026-05-05 13:34 13.99264 108.30920 35007 ft 467 kts 93°
2026-05-05 13:35 13.98950 108.37578 34996 ft 468 kts 93°
2026-05-05 13:35 13.98635 108.44239 34995 ft 468 kts 92°
2026-05-05 13:36 13.98317 108.50925 34984 ft 468 kts 92°
2026-05-05 13:36 13.97998 108.57572 34979 ft 468 kts 92°
2026-05-05 13:37 13.97677 108.64253 34974 ft 468 kts 92°
2026-05-05 13:37 13.97357 108.70901 34969 ft 467 kts 93°
2026-05-05 13:38 13.97033 108.77571 34965 ft 467 kts 93°
2026-05-05 13:38 13.96707 108.84248 34950 ft 468 kts 93°
2026-05-05 13:39 13.96379 108.90923 34936 ft 469 kts 93°
2026-05-05 13:39 13.96048 108.97599 34919 ft 469 kts 92°
2026-05-05 13:40 13.95744 109.04321 34906 ft 469 kts 91°
2026-05-05 13:40 13.95779 109.11007 34903 ft 469 kts 89°
2026-05-05 13:41 13.95866 109.17691 34900 ft 469 kts 89°
2026-05-05 13:41 13.95947 109.24389 34895 ft 468 kts 89°
2026-05-05 13:42 13.96022 109.31081 34896 ft 468 kts 89°
2026-05-05 13:42 13.96094 109.37769 34892 ft 469 kts 89°
2026-05-05 13:43 13.96165 109.44465 34890 ft 468 kts 89°
2026-05-05 13:43 13.96233 109.51166 34887 ft 469 kts 89°
2026-05-05 13:44 13.96297 109.57846 34888 ft 468 kts 89°
2026-05-05 13:44 13.96358 109.64558 34886 ft 469 kts 89°
2026-05-05 13:45 13.96418 109.71259 34883 ft 469 kts 89°
2026-05-05 13:45 13.96477 109.77961 34885 ft 469 kts 89°
2026-05-05 13:46 13.96534 109.84624 34884 ft 469 kts 89°
2026-05-05 13:46 13.96591 109.91332 34879 ft 470 kts 89°
2026-05-05 13:47 13.96645 109.98041 34877 ft 470 kts 89°
2026-05-05 13:47 13.96705 110.04772 34875 ft 469 kts 89°
2026-05-05 13:48 13.96775 110.11459 34877 ft 470 kts 89°
2026-05-05 13:48 13.96844 110.18160 34877 ft 470 kts 89°
2026-05-05 13:49 13.96911 110.24848 34876 ft 470 kts 89°
2026-05-05 13:49 13.96976 110.31580 34876 ft 470 kts 89°
2026-05-05 13:50 13.97039 110.38286 34878 ft 470 kts 88°
2026-05-05 13:50 13.97100 110.45008 34887 ft 470 kts 88°
2026-05-05 13:51 13.97160 110.51719 34895 ft 471 kts 89°
2026-05-05 13:51 13.97217 110.58427 34896 ft 470 kts 88°
2026-05-05 13:52 13.97274 110.65176 34897 ft 471 kts 89°
2026-05-05 13:52 13.97327 110.71877 34898 ft 471 kts 89°
2026-05-05 13:53 13.97379 110.78601 34896 ft 471 kts 89°
2026-05-05 13:53 13.97430 110.85320 34896 ft 470 kts 89°
2026-05-05 13:54 13.97477 110.92042 34898 ft 470 kts 88°
2026-05-05 13:54 13.97524 110.98741 34896 ft 470 kts 89°
2026-05-05 13:55 13.97569 111.05499 34896 ft 471 kts 88°
2026-05-05 13:55 13.97613 111.12191 34893 ft 471 kts 89°
2026-05-05 13:56 13.97653 111.18959 34895 ft 472 kts 89°
2026-05-05 13:56 13.97692 111.25687 34894 ft 471 kts 88°
2026-05-05 13:57 13.97729 111.32381 34894 ft 472 kts 88°
2026-05-05 13:57 13.97766 111.39134 34895 ft 471 kts 88°
2026-05-05 13:58 13.97801 111.45851 34894 ft 472 kts 88°
2026-05-05 13:58 13.97832 111.52594 34888 ft 472 kts 89°
2026-05-05 13:59 13.97869 111.62722 34879 ft 472 kts 88°
2026-05-05 14:00 13.97903 111.72858 34875 ft 473 kts 89°
2026-05-05 14:00 13.97924 111.79616 34876 ft 473 kts 89°
2026-05-05 14:01 13.97944 111.86349 34875 ft 473 kts 89°
2026-05-05 14:01 13.97962 111.93134 34875 ft 473 kts 89°
2026-05-05 14:02 13.97978 111.99895 34874 ft 473 kts 89°
2026-05-05 14:02 13.97992 112.06659 34875 ft 473 kts 89°
2026-05-05 14:03 13.98004 112.13400 34873 ft 474 kts 88°
2026-05-05 14:03 13.98015 112.20157 34873 ft 474 kts 88°
2026-05-05 14:04 13.98024 112.26910 34870 ft 473 kts 89°
2026-05-05 14:04 13.98031 112.33705 34871 ft 474 kts 89°
2026-05-05 14:05 13.98035 112.40459 34874 ft 474 kts 89°
2026-05-05 14:05 13.98038 112.47203 34873 ft 474 kts 89°
2026-05-05 14:06 13.98039 112.53978 34874 ft 474 kts 89°
2026-05-05 14:06 13.98039 112.60753 34872 ft 474 kts 89°
2026-05-05 14:07 13.98036 112.67515 34872 ft 474 kts 89°
2026-05-05 14:07 13.98033 112.74309 34873 ft 474 kts 89°
2026-05-05 14:08 13.98026 112.81045 34878 ft 474 kts 89°
2026-05-05 14:08 13.98019 112.87811 34885 ft 474 kts 89°
2026-05-05 14:09 13.98009 112.94569 34891 ft 473 kts 89°
2026-05-05 14:09 13.97998 113.01346 34894 ft 473 kts 89°
2026-05-05 14:10 13.97983 113.08073 34897 ft 472 kts 89°
2026-05-05 14:10 13.97966 113.14849 34895 ft 474 kts 89°
2026-05-05 14:11 13.97950 113.21583 34896 ft 474 kts 89°
2026-05-05 14:11 13.97931 113.28371 34895 ft 474 kts 89°
2026-05-05 14:12 13.97910 113.35160 34896 ft 474 kts 89°
2026-05-05 14:12 13.97889 113.41905 34896 ft 474 kts 89°
2026-05-05 14:13 13.97864 113.48687 34896 ft 473 kts 89°
2026-05-05 14:13 13.97840 113.55424 34895 ft 473 kts 89°
2026-05-05 14:14 13.97811 113.62206 34895 ft 473 kts 89°
2026-05-05 14:14 13.97781 113.68930 34893 ft 473 kts 89°
2026-05-05 14:15 13.97750 113.75720 34897 ft 473 kts 89°
2026-05-05 14:15 13.97718 113.82438 34896 ft 474 kts 89°
2026-05-05 14:16 13.97683 113.89233 34894 ft 474 kts 89°
2026-05-05 14:16 13.97647 113.95990 34894 ft 474 kts 89°
2026-05-05 14:17 13.97608 114.02747 34891 ft 473 kts 89°
2026-05-05 14:17 13.97566 114.09495 34884 ft 473 kts 89°
2026-05-05 14:18 13.97524 114.16241 34877 ft 473 kts 89°
2026-05-05 14:18 13.97480 114.23013 34875 ft 473 kts 89°
2026-05-05 14:19 13.97435 114.29771 34875 ft 473 kts 89°
2026-05-05 14:19 13.97389 114.36517 34875 ft 473 kts 89°
2026-05-05 14:20 13.97355 114.43252 34874 ft 473 kts 88°
2026-05-05 14:20 13.97776 114.50010 34698 ft 474 kts 83°
2026-05-05 14:21 13.98096 114.53371 34410 ft 473 kts 83°
2026-05-05 14:21 13.98421 114.56732 34123 ft 473 kts 83°
2026-05-05 14:21 13.98748 114.60120 33835 ft 474 kts 83°
2026-05-05 14:21 13.99069 114.63462 33551 ft 475 kts 83°
2026-05-05 14:22 13.99393 114.66862 33262 ft 475 kts 83°
2026-05-05 14:22 13.99712 114.70232 32979 ft 476 kts 83°
2026-05-05 14:22 14.00350 114.77000 32877 ft 476 kts 84°
2026-05-05 14:23 14.00986 114.83791 32876 ft 476 kts 84°
2026-05-05 14:23 14.01619 114.90569 32875 ft 476 kts 84°
2026-05-05 14:24 14.02248 114.97315 32876 ft 477 kts 84°
2026-05-05 14:24 14.02878 115.04101 32875 ft 477 kts 84°
2026-05-05 14:25 14.03505 115.10865 32882 ft 476 kts 84°
2026-05-05 14:25 14.04132 115.17639 32874 ft 476 kts 84°
2026-05-05 14:26 14.04754 115.24406 32882 ft 476 kts 84°
2026-05-05 14:26 14.05373 115.31165 32893 ft 475 kts 84°
2026-05-05 14:27 14.05992 115.37927 32896 ft 475 kts 84°
2026-05-05 14:27 14.06608 115.44671 32900 ft 475 kts 84°
2026-05-05 14:28 14.07224 115.51444 32898 ft 475 kts 84°
2026-05-05 14:28 14.07836 115.58200 32900 ft 475 kts 84°
2026-05-05 14:29 14.08447 115.64953 32901 ft 474 kts 84°
2026-05-05 14:29 14.09053 115.71682 32898 ft 474 kts 84°
2026-05-05 14:30 14.09660 115.78445 32900 ft 474 kts 84°
2026-05-05 14:30 14.10263 115.85177 32898 ft 474 kts 84°
2026-05-05 14:31 14.10866 115.91938 32898 ft 474 kts 84°
2026-05-05 14:31 14.11463 115.98659 32898 ft 474 kts 84°
2026-05-05 14:32 14.12064 116.05444 32897 ft 475 kts 84°
2026-05-05 14:32 14.12661 116.12173 32896 ft 474 kts 84°
2026-05-05 14:33 14.13256 116.18927 32896 ft 474 kts 84°
2026-05-05 14:33 14.13847 116.25671 32896 ft 474 kts 84°
2026-05-05 14:34 14.14437 116.32406 32895 ft 474 kts 84°
2026-05-05 14:34 14.15026 116.39158 32891 ft 475 kts 84°
2026-05-05 14:35 14.15615 116.45943 32889 ft 476 kts 84°
2026-05-05 14:35 14.16203 116.52727 32887 ft 475 kts 84°
2026-05-05 14:36 14.16787 116.59495 32887 ft 475 kts 84°
2026-05-05 14:36 14.17370 116.66258 32884 ft 475 kts 84°
2026-05-05 14:37 14.17949 116.73003 32884 ft 475 kts 84°
2026-05-05 14:37 14.18529 116.79785 32880 ft 475 kts 84°
2026-05-05 14:38 14.19105 116.86535 32879 ft 476 kts 84°
2026-05-05 14:38 14.19680 116.93291 32877 ft 476 kts 84°
2026-05-05 14:39 14.20253 117.00075 32876 ft 476 kts 84°
2026-05-05 14:39 14.20824 117.06847 32876 ft 476 kts 84°
2026-05-05 14:40 14.21396 117.13646 32875 ft 475 kts 84°
2026-05-05 14:40 14.21961 117.20401 32876 ft 475 kts 84°
2026-05-05 14:41 14.22525 117.27162 32876 ft 476 kts 84°
2026-05-05 14:41 14.23091 117.33964 32876 ft 476 kts 84°
2026-05-05 14:42 14.23653 117.40750 32875 ft 476 kts 84°
2026-05-05 14:42 14.24213 117.47514 32875 ft 477 kts 84°
2026-05-05 14:43 14.24774 117.54318 32877 ft 477 kts 84°
2026-05-05 14:43 14.25331 117.61121 32882 ft 477 kts 84°
2026-05-05 14:44 14.25886 117.67901 32888 ft 476 kts 85°
2026-05-05 14:44 14.26436 117.74657 32892 ft 476 kts 85°
2026-05-05 14:45 14.26988 117.81458 32895 ft 476 kts 84°
2026-05-05 14:45 14.27536 117.88229 32896 ft 476 kts 84°
2026-05-05 14:46 14.28087 117.95050 32896 ft 476 kts 85°
2026-05-05 14:46 14.28631 118.01807 32896 ft 477 kts 85°
2026-05-05 14:47 14.29175 118.08607 32896 ft 477 kts 85°
2026-05-05 14:47 14.29720 118.15445 32896 ft 477 kts 85°
2026-05-05 14:48 14.30259 118.22215 32896 ft 477 kts 85°
2026-05-05 14:48 14.30798 118.29015 32896 ft 477 kts 84°
2026-05-05 14:49 14.31335 118.35823 32896 ft 477 kts 84°
2026-05-05 14:49 14.31868 118.42617 32896 ft 476 kts 85°
2026-05-05 14:50 14.32399 118.49403 32896 ft 475 kts 85°
2026-05-05 14:50 14.32926 118.56177 32896 ft 476 kts 85°
2026-05-05 14:51 14.33453 118.62965 32897 ft 477 kts 85°
2026-05-05 14:51 14.33979 118.69769 32897 ft 477 kts 85°
2026-05-05 14:52 14.34505 118.76579 32895 ft 477 kts 85°
2026-05-05 14:52 14.35029 118.83376 32890 ft 476 kts 85°
2026-05-05 14:53 14.35553 118.90207 32885 ft 476 kts 85°
2026-05-05 14:53 14.36066 118.96951 32886 ft 475 kts 85°
2026-05-05 14:54 14.36583 119.03761 32884 ft 474 kts 85°
2026-05-05 14:54 14.37097 119.10551 32880 ft 475 kts 85°
2026-05-05 14:55 14.37609 119.17332 32878 ft 477 kts 85°
2026-05-05 14:55 14.38125 119.24174 32878 ft 476 kts 85°
2026-05-05 14:56 14.38633 119.30953 32877 ft 476 kts 85°
2026-05-05 14:56 14.39144 119.37797 32878 ft 475 kts 85°
2026-05-05 14:57 14.39300 119.44618 32874 ft 474 kts 96°
2026-05-05 14:57 14.37718 119.51163 32875 ft 474 kts 112°
2026-05-05 14:58 14.34392 119.57012 32873 ft 473 kts 129°
2026-05-05 14:58 14.29950 119.62016 32877 ft 473 kts 134°
2026-05-05 14:59 14.25361 119.66983 32874 ft 473 kts 134°
2026-05-05 14:59 14.20832 119.71927 32873 ft 472 kts 134°
2026-05-05 15:00 14.17095 119.76022 32868 ft 471 kts 134°
2026-05-05 15:00 14.14121 119.79285 32122 ft 468 kts 134°
2026-05-05 15:00 14.11886 119.81739 31433 ft 467 kts 134°
2026-05-05 15:01 14.09657 119.84184 30717 ft 467 kts 134°
2026-05-05 15:01 14.07427 119.86628 30054 ft 466 kts 134°
2026-05-05 15:01 14.05223 119.89040 29608 ft 459 kts 134°
2026-05-05 15:01 14.03056 119.91410 29154 ft 454 kts 134°
2026-05-05 15:02 14.00897 119.93771 28682 ft 449 kts 134°
2026-05-05 15:02 13.98765 119.96102 28225 ft 444 kts 134°
2026-05-05 15:02 13.96654 119.98412 27866 ft 436 kts 134°
2026-05-05 15:02 13.94624 120.00632 27677 ft 425 kts 134°
2026-05-05 15:03 13.92612 120.02841 27505 ft 413 kts 132°
2026-05-05 15:03 13.91045 120.05276 27212 ft 404 kts 111°
2026-05-05 15:03 13.90544 120.08040 27060 ft 392 kts 89°
2026-05-05 15:03 13.91034 120.10757 26846 ft 384 kts 69°
2026-05-05 15:04 13.92372 120.13120 26376 ft 382 kts 50°
2026-05-05 15:04 13.94286 120.15020 25917 ft 382 kts 40°
2026-05-05 15:04 13.96356 120.16726 25286 ft 386 kts 38°
2026-05-05 15:04 13.98492 120.18420 24602 ft 390 kts 38°
2026-05-05 15:05 14.02835 120.21815 23239 ft 396 kts 37°
2026-05-05 15:05 14.05009 120.23500 22568 ft 391 kts 37°
2026-05-05 15:05 14.07161 120.25162 21904 ft 383 kts 37°
2026-05-05 15:06 14.09275 120.26788 21247 ft 374 kts 37°
2026-05-05 15:06 14.11355 120.28385 20586 ft 366 kts 37°
2026-05-05 15:06 14.13367 120.29926 19930 ft 359 kts 37°
2026-05-05 15:06 14.15371 120.31457 19276 ft 353 kts 37°
2026-05-05 15:07 14.17307 120.32930 18615 ft 347 kts 37°
2026-05-05 15:07 14.19254 120.34411 17953 ft 341 kts 37°
2026-05-05 15:07 14.21148 120.35847 17300 ft 336 kts 37°
2026-05-05 15:07 14.23010 120.37258 16668 ft 332 kts 37°
2026-05-05 15:08 14.24850 120.38651 16027 ft 327 kts 37°
2026-05-05 15:08 14.26673 120.40031 15378 ft 323 kts 37°
2026-05-05 15:08 14.28477 120.41392 14728 ft 321 kts 37°
2026-05-05 15:08 14.30287 120.42755 14079 ft 322 kts 37°
2026-05-05 15:09 14.32112 120.44126 13433 ft 323 kts 37°
2026-05-05 15:09 14.33928 120.45488 12782 ft 324 kts 37°
2026-05-05 15:09 14.35586 120.46993 12120 ft 322 kts 53°
2026-05-05 15:09 14.36583 120.49015 11417 ft 315 kts 77°
2026-05-05 15:10 14.36687 120.51214 10717 ft 310 kts 100°
2026-05-05 15:10 14.35890 120.53259 9999 ft 307 kts 124°
2026-05-05 15:10 14.34366 120.54776 9290 ft 304 kts 142°
2026-05-05 15:10 14.32609 120.55944 8583 ft 302 kts 146°
2026-05-05 15:11 14.30797 120.57058 7858 ft 299 kts 147°
2026-05-05 15:11 14.29020 120.58129 7137 ft 297 kts 147°
2026-05-05 15:11 14.27240 120.59195 6418 ft 295 kts 147°
2026-05-05 15:11 14.25480 120.60244 5715 ft 292 kts 147°
2026-05-05 15:12 14.23715 120.61298 5212 ft 282 kts 147°
2026-05-05 15:12 14.22069 120.62296 5002 ft 271 kts 143°
2026-05-05 15:12 14.20768 120.63654 4990 ft 267 kts 117°
2026-05-05 15:12 14.20247 120.65490 4997 ft 264 kts 90°
2026-05-05 15:13 14.20631 120.67326 4926 ft 264 kts 63°
2026-05-05 15:13 14.21776 120.68785 4691 ft 264 kts 43°
2026-05-05 15:13 14.23246 120.69905 4450 ft 264 kts 32°
2026-05-05 15:13 14.24865 120.70795 4213 ft 264 kts 28°
2026-05-05 15:14 14.26509 120.71628 3972 ft 263 kts 27°
2026-05-05 15:14 14.28178 120.72462 3729 ft 262 kts 27°
2026-05-05 15:14 14.29823 120.73286 3491 ft 262 kts 27°
2026-05-05 15:14 14.31464 120.74107 3248 ft 259 kts 27°
2026-05-05 15:15 14.33074 120.74909 3036 ft 252 kts 27°
2026-05-05 15:15 14.34625 120.75678 2999 ft 238 kts 27°
2026-05-05 15:15 14.36020 120.76465 2978 ft 221 kts 38°
2026-05-05 15:15 14.37110 120.77520 3069 ft 208 kts 51°
2026-05-05 15:16 14.37919 120.78683 3025 ft 190 kts 59°
2026-05-05 15:16 14.38578 120.79803 2973 ft 175 kts 60°
2026-05-05 15:16 14.39209 120.80928 3002 ft 183 kts 61°
2026-05-05 15:16 14.39838 120.82065 3001 ft 184 kts 61°
2026-05-05 15:17 14.40477 120.83223 2993 ft 184 kts 61°
2026-05-05 15:17 14.41113 120.84374 2992 ft 185 kts 61°
2026-05-05 15:17 14.41748 120.85525 2992 ft 185 kts 60°
2026-05-05 15:17 14.42394 120.86691 2875 ft 185 kts 61°
2026-05-05 15:18 14.43016 120.87816 2663 ft 172 kts 61°
2026-05-05 15:18 14.43583 120.88837 2425 ft 156 kts 61°
2026-05-05 15:18 14.44101 120.89771 2211 ft 146 kts 62°
2026-05-05 15:18 14.44605 120.90680 2035 ft 145 kts 61°
2026-05-05 15:19 14.45103 120.91578 1863 ft 145 kts 61°
2026-05-05 15:19 14.45608 120.92488 1687 ft 144 kts 61°
2026-05-05 15:19 14.46107 120.93388 1505 ft 144 kts 61°
2026-05-05 15:19 14.46599 120.94275 1321 ft 144 kts 61°
2026-05-05 15:20 14.47101 120.95179 1134 ft 143 kts 62°
2026-05-05 15:20 14.47592 120.96065 949 ft 143 kts 60°
2026-05-05 15:20 14.48090 120.96962 758 ft 142 kts 61°
2026-05-05 15:20 14.48585 120.97849 578 ft 142 kts 62°
2026-05-05 15:21 14.49074 120.98731 387 ft 143 kts 63°
2026-05-05 15:21 14.49572 120.99628 231 ft 143 kts 64°
2026-05-05 15:21 14.50055 121.00507 92 ft 135 kts 62°
2026-05-05 15:21 14.50434 121.01186 82 ft 79 kts 60°
2026-05-05 15:22 14.50644 121.01561 82 ft 34 kts 59°
2026-05-05 15:22 14.50759 121.01711 82 ft 21 kts 40°
2026-05-05 15:22 14.50839 121.01775 82 ft 5 kts 37°
2026-05-05 15:22 14.50859 121.01788 82 ft 2 kts 22°
2026-05-05 15:23 14.50882 121.01788 82 ft 3 kts 338°
2026-05-05 15:23 14.50904 121.01767 82 ft 4 kts 298°
2026-05-05 15:23 14.50899 121.01733 82 ft 5 kts 243°
2026-05-05 15:23 14.50878 121.01692 82 ft 6 kts 242°
2026-05-05 15:24 14.50853 121.01646 82 ft 8 kts 239°
2026-05-05 15:24 14.50822 121.01592 82 ft 8 kts 239°
2026-05-05 15:24 14.50789 121.01535 82 ft 9 kts 239°
2026-05-05 15:24 14.50754 121.01473 82 ft 10 kts 240°
2026-05-05 15:25 14.50717 121.01406 82 ft 11 kts 240°
2026-05-05 15:25 14.50678 121.01336 82 ft 11 kts 240°
2026-05-05 15:25 14.50636 121.01260 82 ft 12 kts 240°
2026-05-05 15:25 14.50592 121.01181 82 ft 12 kts 240°
2026-05-05 15:26 14.50548 121.01100 82 ft 13 kts 240°
2026-05-05 15:26 14.50502 121.01018 82 ft 13 kts 240°
2026-05-05 15:26 14.50453 121.00932 82 ft 13 kts 240°
2026-05-05 15:26 14.50427 121.00872 82 ft 8 kts 271°
2026-05-05 15:27 14.50468 121.00835 82 ft 9 kts 351°
2026-05-05 15:27 14.50530 121.00813 82 ft 9 kts 330°
2026-05-05 15:27 14.50592 121.00776 82 ft 10 kts 329°
2026-05-05 15:27 14.50642 121.00721 82 ft 9 kts 294°
2026-05-05 15:28 14.50671 121.00654 82 ft 10 kts 289°
2026-05-05 15:28 14.50669 121.00588 82 ft 6 kts 242°
2026-05-05 15:28 14.50640 121.00549 82 ft 6 kts 213°
2026-05-05 15:28 14.50603 121.00530 82 ft 5 kts 205°
2026-05-05 15:29 14.50596 121.00526 82 ft 0 kts 204°
2026-05-05 15:29 14.50595 121.00526 82 ft 0 kts 204°